RH
2 2 2 3 3 3 4 5 5 6 6 6 7 11 17 14 10 8 8 11 11 10 10 11 11 9 9 8 10 13 20 28 40 46 37 27 32 40 37 37 36 32 29 24 21 18 16 16 16 16 16 15 12 11 9 8 8 8 8 7 7 7 8 7 8 9 9 7 6 5 5 6 7 9 11 20 30 37 42 46 46 46 54 60 62 62 59 58 61 59 51 34 17 8 6 6 6
2 2 2 3 4 4 5 4 5 6 4 8 9 12 17 12 7 9 11 10 9 10 11 11 11 11 9 11 14 14 16 19 25 32 38 36 35 39 37 35 31 30 28 25 24 21 21 19 18 18 18 16 13 11 8 8 8 8 7 7 6 7 9 10 11 11 10 8 7 6 6 7 9 10 14 24 36 44 49 54 54 52 56 63 66 68 66 62 60 57 52 41 24 10 6 6 6
2 2 3 3 4 4 5 5 6 6 7 16 17 18 19 14 12 11 11 8 8 9 9 11 12 13 12 12 12 13 15 16 23 27 26 25 26 30 31 29 27 28 28 26 24 25 25 22 22 21 19 17 15 13 11 9 8 8 7 6 7 10 13 16 17 15 13 10 8 7 8 9 10 12 15 23 36 48 57 63 65 61 60 66 71 73 72 69 64 58 52 43 28 13 7 6 6
2 2 3 3 5 5 5 5 5 6 9 20 23 24 27 26 24 13 6 7 9 9 9 11 12 13 15 18 16 18 21 18 27 32 27 22 18 18 17 18 19 22 24 25 25 27 25 23 25 23 21 19 16 15 13 11 10 8 9 9 10 16 20 21 22 20 17 14 10 9 10 11 12 14 15 20 30 42 55 65 71 70 66 68 73 76 78 77 72 63 52 40 28 18 8 6 7
2 3 3 4 5 4 5 5 6 6 7 19 24 27 36 37 27 9 5 9 9 9 9 11 13 16 18 19 18 24 33 31 29 28 26 25 19 17 16 16 18 21 24 24 26 27 24 25 25 24 23 20 17 14 12 12 10 9 12 13 14 18 20 19 20 20 20 19 14 11 11 13 13 14 15 17 21 29 41 55 68 74 74 73 72 74 78 82 81 71 57 41 28 20 10 6 7
3 3 3 5 5 4 6 6 6 6 7 16 22 30 43 42 21 5 8 9 9 10 10 12 13 18 22 20 19 22 30 31 31 32 31 26 20 18 18 17 18 21 22 23 27 28 24 25 25 23 22 19 16 13 12 11 10 10 11 13 14 14 14 15 18 17 17 19 19 14 12 13 14 13 14 15 16 19 24 35 50 63 74 80 79 74 74 78 83 80 64 45 30 22 13 7 6
4 4 5 5 5 5 6 6 7 10 20 23 22 31 38 30 13 6 10 8 10 11 9 14 13 14 20 25 29 23 16 16 23 35 35 26 21 19 18 17 19 21 22 24 27 27 24 25 25 23 21 18 15 13 12 10 9 8 8 9 9 10 10 12 15 16 13 15 18 15 12 13 14 13 13 14 15 16 17 20 27 38 53 73 83 78 74 75 81 84 72 48 34 25 15 10 6
4 5 5 5 7 6 5 8 7 14 33 37 27 26 20 10 8 9 10 10 12 11 10 16 14 11 16 21 31 31 22 17 17 24 25 21 20 21 20 18 20 22 23 26 27 27 27 26 25 22 20 17 14 13 12 11 9 7 7 7 7 8 9 10 13 13 10 12 14 12 10 11 13 13 13 14 12 11 12 14 18 21 28 48 72 81 78 76 77 85 80 52 34 31 20 13 8
4 6 5 6 7 7 7 7 8 18 37 41 28 18 10 5 8 9 9 11 13 11 11 20 24 18 16 21 28 33 31 25 19 18 19 19 19 22 25 24 25 24 21 25 27 28 29 26 24 22 19 15 13 12 11 11 10 8 6 6 8 8 7 9 10 10 9 9 11 9 7 9 12 12 12 12 10 7 6 8 13 18 20 25 46 70 79 75 71 78 88 67 34 29 25 14 10
6 6 6 8 7 8 8 10 14 23 36 33 20 12 9 8 8 8 9 10 10 9 10 24 38 33 31 38 35 31 31 25 22 26 24 22 22 21 26 27 27 24 21 26 30 30 29 24 23 22 18 14 13 11 11 11 10 9 7 7 9 10 12 11 9 9 9 8 8 7 5 6 9 11 11 10 8 7 5 4 6 13 20 19 25 46 67 72 66 64 80 83 45 23 26 17 10
6 7 7 8 9 10 9 17 22 30 43 29 12 11 7 7 8 8 9 9 8 8 10 18 31 36 39 42 40 42 39 26 21 28 29 27 26 24 25 24 23 24 24 29 32 29 25 22 22 20 16 13 13 12 12 11 10 10 9 9 8 11 15 15 12 10 9 9 7 6 5 4 7 9 10 11 8 6 5 5 4 7 15 22 22 28 47 61 64 58 61 82 68 29 23 20 9
8 8 9 9 11 10 15 27 29 42 55 29 13 13 6 7 9 9 9 10 10 7 11 13 22 35 37 33 35 38 30 25 28 30 33 34 31 28 28 26 24 27 29 31 31 25 20 19 20 18 16 15 13 13 13 13 14 17 17 16 14 15 19 19 16 14 13 11 7 6 5 5 7 8 9 11 8 5 5 5 4 4 9 20 25 25 33 44 54 58 52 66 81 50 23 21 12
10 10 10 12 11 13 27 40 41 47 44 27 22 13 5 9 9 9 9 11 11 7 10 9 20 34 34 40 44 33 21 25 35 34 36 38 34 32 30 30 29 30 32 32 27 21 17 18 19 18 19 17 15 14 14 17 21 24 23 25 27 22 23 26 22 22 23 20 17 11 8 9 8 7 9 11 9 6 7 7 6 5 6 13 24 30 31 37 45 56 58 57 76 67 31 19 16
12 14 13 13 14 16 25 29 34 37 30 31 28 8 6 12 9 10 10 11 11 15 23 12 17 32 33 48 48 40 36 24 24 24 25 29 29 30 30 31 30 27 29 28 24 19 18 20 21 19 21 20 21 19 16 22 26 24 22 28 34 28 25 26 26 26 26 27 26 19 15 15 14 12 10 9 8 8 9 9 10 8 7 10 20 33 36 41 45 52 60 59 71 79 48 17 13
14 16 14 15 16 18 22 16 23 34 37 43 27 9 11 12 10 12 11 13 13 19 30 14 14 26 25 36 36 40 45 29 25 25 25 27 25 26 26 27 25 23 27 26 24 21 20 22 21 20 23 22 25 22 16 21 25 22 21 23 26 24 25 25 26 24 24 27 27 25 22 19 22 20 14 12 11 14 16 13 13 11 8 9 17 34 42 44 47 50 56 61 72 88 76 32 8
15 17 16 19 18 19 30 27 25 28 38 47 26 13 14 12 11 12 11 13 17 14 15 11 14 20 20 32 35 40 50 44 43 42 42 38 28 25 23 23 21 22 26 28 27 22 22 24 22 22 25 25 27 23 16 18 20 21 20 18 17 18 22 23 25 27 30 32 27 21 19 26 36 28 18 19 21 24 25 19 16 13 8 10 19 33 44 46 44 47 51 58 68 84 95 63 16
17 20 17 22 20 22 36 41 40 29 44 55 23 10 15 16 13 11 13 14 17 13 12 16 16 17 20 26 28 48 69 65 63 61 54 42 31 27 26 28 25 22 23 28 33 27 26 26 23 23 23 25 28 23 19 20 20 23 19 14 14 14 15 15 18 26 31 29 21 17 21 34 40 37 36 36 34 32 33 30 22 16 11 13 23 34 43 50 48 49 56 60 71 83 98 88 38
19 21 20 24 21 30 44 48 46 30 47 55 16 8 17 18 16 11 15 16 16 15 16 20 17 17 17 18 26 59 83 77 79 74 53 35 32 32 32 33 30 29 27 29 33 28 25 25 23 21 20 21 22 20 21 22 18 20 17 12 14 12 12 13 12 19 27 26 21 20 27 33 38 45 47 43 40 36 36 36 27 19 14 15 26 39 47 57 60 65 76 81 91 95 97 96 58
20 21 22 23 24 43 50 36 31 21 32 36 13 15 19 19 19 15 18 19 19 17 17 20 19 17 15 17 25 47 67 78 83 69 46 31 32 37 39 39 36 38 34 31 33 29 26 24 22 19 18 18 20 22 23 25 22 20 16 13 17 16 15 16 18 22 27 31 27 26 33 38 42 44 43 45 48 43 41 38 32 24 16 15 22 37 51 60 68 76 86 93 98 97 94 97 73
20 21 22 25 30 43 37 19 22 23 24 24 19 20 20 21 21 19 21 21 22 19 18 23 20 17 17 17 25 42 61 80 77 56 44 41 43 46 47 47 44 41 33 31 31 29 27 23 21 17 17 16 21 29 31 34 29 23 20 16 20 20 18 20 25 30 30 31 29 34 45 43 38 39 43 51 46 34 32 31 33 30 18 14 14 24 40 51 62 69 76 82 83 85 89 98 86
20 20 21 29 31 28 24 20 24 25 23 23 22 23 23 22 21 22 23 22 26 25 23 27 24 19 17 18 39 66 76 78 70 60 56 55 57 54 51 48 43 38 31 30 28 24 22 21 21 20 20 16 18 23 26 34 31 27 22 17 24 23 20 23 25 28 28 27 24 30 38 36 39 43 39 37 31 28 33 35 36 33 24 17 14 14 21 37 50 56 66 73 72 74 83 96 96
19 19 21 26 26 21 23 23 22 21 23 24 23 25 24 22 23 23 24 24 32 41 39 37 31 19 21 27 41 60 68 69 62 59 59 57 57 49 45 43 38 35 29 26 24 22 23 24 25 22 22 19 17 16 14 21 27 29 20 18 35 32 24 25 22 25 27 28 28 28 31 34 43 42 27 21 24 33 45 41 33 30 25 18 16 14 13 26 37 44 61 69 68 73 82 93 100
19 20 20 22 20 20 22 19 19 21 22 24 23 24 23 24 25 23 26 25 29 43 44 43 34 21 28 31 28 31 42 53 46 42 46 45 46 43 41 38 33 31 25 25 25 27 29 26 26 24 22 18 16 15 12 13 16 20 21 29 43 36 31 30 28 34 34 36 35 29 35 41 42 36 24 22 23 28 39 35 24 24 23 18 19 18 14 19 22 29 45 49 49 57 65 70 75
20 20 20 20 19 19 20 19 19 20 22 23 23 24 24 26 25 24 28 25 24 31 31 32 29 26 30 26 36 46 42 41 34 35 41 38 40 40 39 33 26 25 25 30 32 32 30 26 26 24 21 17 14 13 12 12 10 12 17 24 24 21 26 26 29 34 31 38 37 26 32 40 42 38 31 34 31 29 40 36 23 24 21 19 26 25 16 16 15 16 26 30 31 36 47 56 48
20 19 19 18 18 19 18 19 19 19 21 21 22 24 24 25 24 25 28 26 25 26 25 24 21 25 25 26 54 66 50 42 38 44 47 45 48 40 34 29 25 28 31 34 34 31 27 25 24 22 18 15 14 12 10 10 11 13 11 10 9 10 13 13 22 24 20 29 29 22 25 28 35 38 33 37 38 34 40 34 22 24 18 18 37 42 32 26 22 18 19 23 29 33 48 71 67
18 18 19 18 18 18 18 18 17 19 20 19 22 23 23 24 23 26 26 23 25 25 25 24 21 23 24 31 51 55 48 45 44 47 42 40 44 38 32 32 32 35 36 35 33 28 24 23 21 18 15 13 12 10 10 9 9 12 10 7 7 7 6 9 17 15 15 23 19 21 25 23 28 31 30 34 35 30 27 25 24 23 17 21 38 47 42 30 27 31 30 32 42 45 49 69 83
16 17 18 18 18 17 17 17 17 18 18 19 21 19 22 21 21 29 29 22 24 25 23 24 22 19 26 35 43 50 51 45 42 42 38 35 36 35 36 37 40 39 38 35 29 24 20 18 15 13 13 11 10 9 10 9 7 9 7 7 6 6 7 7 9 8 11 16 15 19 21 20 22 23 27 30 32 30 24 23 21 17 18 28 45 58 54 36 29 33 34 45 63 70 70 72 84
14 17 17 17 18 17 17 17 16 17 16 17 18 20 21 19 25 32 29 24 24 26 26 29 29 25 36 46 48 54 49 37 38 42 40 38 34 36 40 40 42 41 37 31 23 20 16 12 12 12 12 9 8 10 9 7 5 6 6 6 6 7 8 6 6 6 7 9 10 12 14 15 15 18 25 24 25 29 29 30 23 17 16 23 45 61 60 54 49 42 37 46 58 71 86 87 85
14 15 15 16 16 16 16 15 15 15 16 16 15 19 15 20 38 31 20 25 22 24 26 26 31 40 59 62 53 56 51 36 37 42 38 35 36 40 44 45 44 39 31 25 20 19 13 9 11 11 11 9 9 10 9 8 6 6 6 6 7 7 8 7 7 7 7 8 9 8 10 11 10 13 19 18 17 17 25 37 28 20 17 20 37 42 43 59 65 58 55 56 58 70 89 93 89
12 12 14 13 12 15 13 13 16 13 14 15 13 24 30 45 58 28 14 25 21 23 24 22 27 36 57 64 54 59 60 49 42 43 39 38 44 47 48 48 42 34 25 21 20 16 10 8 9 9 9 9 10 9 9 9 7 7 7 7 8 7 7 7 7 8 8 8 9 9 8 9 8 10 12 12 15 14 20 29 21 20 24 25 31 27 35 58 60 52 54 58 65 74 82 85 84
10 11 12 8 20 33 20 9 13 12 13 14 11 30 57 76 70 32 21 27 26 32 26 25 32 24 31 41 45 54 57 56 53 48 45 45 50 51 48 42 34 29 21 20 20 14 10 10 9 10 9 9 9 9 9 9 9 8 8 9 9 9 7 7 8 8 9 8 9 9 8 8 8 9 10 10 15 14 14 17 15 24 30 29 28 23 37 59 54 42 36 37 46 56 66 76 76
8 12 16 12 35 61 43 16 15 22 19 12 10 28 57 75 70 51 42 33 30 44 36 29 34 26 25 28 38 51 52 56 58 53 53 52 51 49 44 35 29 26 21 21 20 13 11 11 11 11 10 11 9 9 9 9 9 8 8 9 9 9 8 7 8 8 10 9 8 8 8 9 9 10 10 10 15 16 19 23 18 16 24 36 36 26 41 61 52 35 25 22 26 33 45 61 68
7 16 41 40 42 60 61 38 24 27 21 10 10 28 59 71 64 58 54 41 32 43 47 37 32 31 33 35 42 50 47 48 46 47 57 57 50 45 39 31 25 21 19 21 20 17 14 12 12 12 12 12 11 10 10 9 9 9 9 8 8 9 9 8 8 8 9 9 9 9 8 9 9 10 9 11 18 19 24 31 23 15 23 40 42 40 55 64 58 40 24 24 22 19 22 31 47
29 25 55 63 48 49 66 60 35 22 12 15 23 25 55 75 66 63 56 43 32 36 52 49 39 35 29 30 37 43 47 51 47 45 52 51 44 39 30 22 19 16 16 19 22 21 16 13 13 13 13 12 12 11 10 10 9 9 9 9 8 8 8 8 8 9 9 8 9 9 9 9 8 9 9 10 15 16 18 21 21 20 22 27 31 43 49 51 67 55 26 26 22 14 19 24 36
66 55 58 55 47 45 64 76 63 42 17 35 60 31 38 74 77 77 59 33 27 29 44 50 46 42 31 24 30 41 48 49 49 44 44 47 40 30 21 17 16 14 14 17 21 20 15 14 14 13 13 12 12 11 10 10 10 9 9 9 9 9 8 9 8 9 9 8 9 9 9 9 9 9 9 9 11 11 13 14 17 17 17 17 17 28 30 35 66 58 26 27 25 20 30 42 56
66 71 69 61 57 48 60 74 70 63 29 30 65 36 28 68 79 83 64 26 18 23 27 33 39 42 37 27 26 37 39 38 47 44 45 54 39 20 15 15 15 14 15 16 15 15 14 13 13 13 13 12 11 10 9 10 10 10 10 9 9 9 9 9 8 8 9 8 9 9 8 9 9 10 9 9 10 11 14 13 12 11 11 13 11 15 20 26 48 42 30 41 33 25 29 37 55
27 35 52 73 77 57 67 75 51 46 26 17 62 63 43 61 74 82 65 23 12 18 16 19 31 39 38 33 30 34 31 30 43 40 40 47 28 13 16 14 14 16 16 16 15 15 15 15 14 13 12 12 11 10 10 9 10 10 10 10 9 10 9 9 9 8 8 8 8 8 8 9 8 9 9 9 10 10 13 11 9 10 9 9 8 9 13 19 30 27 43 69 47 23 26 28 37
11 8 22 59 78 63 70 81 51 30 17 17 69 87 49 38 54 56 37 16 13 16 15 16 27 36 37 35 31 32 29 28 40 41 38 41 26 14 16 14 15 19 19 21 21 19 19 18 16 15 13 13 12 11 10 9 10 10 10 10 9 10 9 9 9 8 9 8 8 9 8 9 8 9 9 9 10 10 11 11 9 9 8 8 7 6 9 11 15 20 47 73 46 18 25 32 37
15 12 12 37 69 69 61 62 46 25 14 25 67 84 49 31 45 38 17 18 21 16 16 16 20 30 36 35 31 31 29 24 31 36 35 35 28 15 13 16 19 23 25 26 25 24 24 21 17 16 15 15 14 13 11 10 11 12 13 12 10 11 9 9 9 9 9 9 9 9 8 10 9 9 10 9 11 10 10 10 9 9 7 7 6 5 7 5 7 18 37 46 26 16 33 51 59
16 18 14 28 62 75 61 52 43 24 12 19 40 52 38 27 34 28 17 22 23 18 18 16 15 23 33 36 32 30 30 28 23 27 32 28 22 18 19 24 28 30 31 32 34 33 30 24 19 18 18 19 19 18 16 13 13 14 15 14 13 13 12 11 11 10 10 9 9 10 9 10 10 10 11 10 11 10 11 10 9 10 8 8 7 5 6 5 5 10 17 16 6 17 46 65 62
16 18 17 31 63 78 69 55 43 33 26 20 20 22 19 19 25 27 27 24 19 19 18 17 17 18 25 31 31 30 33 34 23 25 38 32 23 27 30 32 34 36 39 43 47 43 37 29 21 19 20 21 21 21 20 18 16 16 16 15 14 14 14 14 13 12 12 11 10 10 10 11 11 11 11 11 11 10 10 10 9 9 8 8 7 7 6 5 5 4 6 9 9 25 46 53 48
23 24 17 22 43 57 55 40 25 27 36 33 28 26 25 36 47 51 52 39 26 24 20 19 19 16 19 20 24 32 33 32 23 21 32 32 32 38 39 40 43 47 53 56 56 51 43 34 25 21 21 21 21 22 22 20 19 18 17 17 16 15 15 15 15 14 14 14 13 12 12 12 11 12 12 11 11 10 10 10 9 9 9 9 7 7 7 5 5 4 5 10 17 28 32 31 39
30 34 29 23 21 24 27 25 19 23 34 34 29 33 44 58 66 61 57 49 39 31 23 20 19 17 19 18 18 25 27 29 25 21 28 37 45 50 50 57 63 67 70 68 66 62 54 44 33 27 23 24 24 24 24 22 20 20 18 17 17 17 16 15 15 15 15 15 14 14 13 12 12 11 11 10 10 10 9 9 9 8 8 8 8 7 7 6 5 4 4 5 9 14 13 11 18
24 32 41 39 29 22 17 15 17 19 30 32 20 24 38 48 59 60 51 51 51 42 30 26 23 18 17 19 19 19 21 29 30 28 32 42 56 66 66 69 75 79 80 78 76 75 70 58 45 35 28 28 29 27 26 23 21 21 19 18 18 17 16 15 15 15 15 15 14 14 13 11 11 10 9 9 9 8 8 7 7 7 7 7 7 7 6 6 5 4 4 3 3 5 5 7 9
24 31 35 37 35 29 24 24 24 26 32 33 25 29 33 30 44 51 37 36 48 46 34 30 31 25 19 19 19 19 23 30 33 34 33 34 48 66 73 74 75 79 84 86 86 86 82 68 55 46 35 33 35 31 26 23 22 22 20 18 17 16 15 13 13 13 13 13 12 11 10 9 8 8 7 7 6 6 6 6 5 5 6 5 5 5 5 5 4 4 4 3 3 4 3 3 5
34 36 28 26 30 26 28 30 29 34 36 32 35 47 49 42 50 58 45 41 55 56 44 40 38 29 27 28 24 22 24 28 33 35 36 36 40 51 62 69 74 78 85 90 92 92 87 75 65 53 40 38 39 32 26 24 23 23 20 18 16 14 13 11 10 10 10 9 8 7 7 6 6 5 5 5 5 5 4 4 4 4 4 4 4 4 3 4 4 3 3 3 3 3 3 4 3
27 34 31 29 32 30 31 29 29 36 33 28 38 47 45 40 49 64 63 56 62 64 57 57 53 38 33 34 29 25 25 28 32 34 36 39 41 46 52 59 66 74 82 88 90 90 88 83 71 55 44 42 38 30 26 28 27 23 18 16 14 12 10 9 8 7 7 7 6 6 4 4 4 4 4 4 3 4 4 4 3 3 3 3 3 3 3 3 3 3 3 3 3 3 3 3 3
23 25 28 31 36 41 43 46 52 52 46 45 51 50 38 30 40 54 56 52 55 58 54 51 47 37 31 33 32 29 29 31 35 36 37 38 40 47 52 55 58 63 72 78 78 80 84 83 73 57 46 42 38 34 32 31 28 22 19 15 10 8 7 6 6 5 5 5 4 5 4 3 3 3 3 3 3 3 3 3 3 3 3 3 3 3 3 3 3 3 3 3 3 3 3 3 3
16 17 21 28 43 59 62 65 72 72 73 74 73 73 60 46 49 50 43 42 44 45 44 40 36 30 26 30 33 31 30 31 33 34 36 37 37 41 45 48 49 51 58 64 66 67 70 74 70 55 45 44 45 43 39 34 27 25 26 20 8 5 5 4 4 4 3 4 4 4 4 3 3 3 3 2 3 3 3 4 4 4 3 3 3 3 3 3 3 3 3 3 3 3 3 3 3
17 20 26 31 47 68 66 63 75 82 83 76 74 80 69 53 52 46 37 38 39 39 39 38 33 25 20 23 28 31 28 25 24 26 27 29 31 34 37 39 39 42 48 50 52 50 51 61 60 46 44 49 51 49 42 35 32 36 41 31 14 8 7 5 4 3 3 4 4 3 4 4 4 4 3 3 3 3 3 3 4 4 4 4 4 4 4 3 3 4 3 3 4 4 4 3 3
39 36 42 43 48 60 60 67 87 91 84 77 74 72 65 60 57 50 47 47 45 46 43 38 31 26 28 30 27 28 26 21 20 21 20 20 22 24 27 29 29 30 31 31 32 28 31 44 44 40 49 52 49 48 40 31 35 45 52 43 27 19 17 14 10 5 3 3 3 3 3 3 4 4 4 3 3 3 3 3 3 3 4 4 5 5 5 5 4 4 4 4 4 4 4 4 3
45 33 35 46 51 55 53 59 69 70 72 74 66 58 58 58 49 44 47 44 39 38 35 34 33 33 39 39 30 26 27 27 26 23 21 19 18 18 19 20 19 19 18 17 18 20 29 40 42 45 51 46 42 42 34 27 31 37 42 39 29 24 24 25 22 15 10 6 6 7 7 8 9 10 9 8 6 5 4 4 3 3 4 4 5 5 5 6 6 6 6 6 6 5 5 5 4
40 25 33 53 58 54 44 42 43 39 44 48 43 41 44 46 45 41 38 34 30 27 25 28 32 36 39 39 37 35 34 34 32 30 28 26 22 19 19 21 21 21 23 24 25 30 39 45 46 47 44 40 42 41 34 31 30 30 33 31 26 25 26 29 30 26 22 20 19 20 21 23 24 23 23 20 17 14 11 9 7 5 5 4 4 5 6 6 6 7 7 7 7 7 6 6 6
17 20 38 47 46 42 33 38 44 38 36 38 41 42 40 54 71 63 48 47 46 39 36 33 30 33 38 41 43 41 38 37 36 37 38 38 36 30 27 31 36 38 38 41 44 47 52 53 52 51 49 49 51 46 42 41 36 34 35 34 32 31 31 32 32 29 29 28 29 31 33 34 34 33 32 30 28 26 22 19 16 13 11 8 6 5 5 7 8 8 8 9 8 8 8 7 7
3 12 25 30 39 46 39 38 41 40 41 41 45 50 54 75 95 81 64 66 65 58 56 50 40 33 31 35 42 46 45 40 38 39 44 51 52 45 38 36 43 53 59 61 61 63 67 67 64 64 63 63 63 57 55 54 48 45 45 44 44 44 45 44 37 35 36 35 35 38 39 41 41 38 37 34 30 29 28 26 23 20 18 16 13 10 7 7 8 8 9 10 10 10 10 9 8
16 12 15 21 26 28 34 40 38 39 43 40 39 49 66 92 104 88 72 70 69 68 65 56 48 41 33 31 39 50 57 53 48 48 53 63 67 65 64 57 52 60 70 76 75 75 79 78 76 78 75 75 77 74 68 62 56 54 52 52 52 51 55 56 50 48 51 51 51 50 47 49 53 53 50 45 37 31 28 27 26 24 23 22 19 18 16 12 10 9 10 10 11 11 11 11 11
40 32 27 27 27 28 35 40 40 41 44 47 43 43 60 84 88 80 78 77 70 68 68 59 51 46 39 33 35 46 59 64 65 63 65 76 81 81 88 89 83 81 83 85 87 89 91 89 86 86 81 82 85 81 73 66 63 61 57 57 59 57 57 60 57 55 56 56 57 58 53 52 63 69 65 60 53 42 31 26 26 26 26 26 26 24 22 21 19 16 15 13 12 12 12 12 12
33 35 31 32 48 61 49 37 48 55 48 55 61 57 63 71 70 76 87 86 75 74 79 73 60 51 43 36 33 37 47 58 67 70 70 79 88 87 88 94 96 94 91 93 97 99 99 98 98 95 90 89 89 85 78 71 66 66 64 61 60 59 59 60 56 53 53 50 50 57 56 49 56 67 66 62 62 58 46 34 28 26 25 25 27 27 25 24 24 22 21 20 18 17 16 14 14
Wind_Speed
34 32 32 30 30 29 28 27 25 27 26 23 22 18 20 32 33 28 27 25 28 29 26 27 27 26 26 26 27 27 27 26 25 25 26 26 27 27 27 28 27 25 25 24 24 24 23 23 22 22 22 22 23 24 24 23 22 21 20 19 19 18 17 16 16 15 13 12 11 11 11 11 11 12 12 12 12 12 13 14 15 16 16 16 14 12 10 9 9 7 6 6 7 9 10 11 10
34 33 32 30 29 29 27 26 25 26 23 21 20 16 21 36 35 25 29 32 29 27 25 27 27 26 27 27 29 29 29 30 29 28 26 26 27 28 28 29 27 26 25 24 24 23 23 23 23 23 22 23 23 24 25 24 23 22 21 20 19 18 17 16 15 14 13 12 12 11 11 11 12 12 13 13 13 13 13 14 14 15 16 16 15 14 13 11 10 8 7 7 8 9 11 12 11
34 33 32 30 29 28 28 27 26 24 21 17 14 14 26 37 31 29 35 33 27 26 27 28 27 27 27 29 30 30 31 31 31 30 28 28 29 29 29 29 28 27 26 25 24 23 23 23 24 24 23 23 24 25 26 25 24 23 22 20 19 17 16 15 15 14 13 13 12 12 12 12 13 13 13 14 14 13 13 14 14 14 15 15 16 16 14 13 12 10 8 8 9 10 12 13 12
34 33 32 30 29 28 28 27 26 24 22 16 8 16 29 33 33 37 36 29 27 27 28 28 28 28 28 28 29 30 31 31 31 30 29 29 30 30 31 30 29 28 27 26 25 24 24 24 25 24 23 24 25 25 25 25 25 24 22 21 19 17 15 15 14 14 14 14 13 13 12 13 13 13 13 14 14 14 14 14 14 14 15 16 16 16 15 14 13 12 10 9 10 11 13 14 14
33 32 31 30 29 29 28 27 26 25 25 18 12 19 31 38 42 39 32 28 29 29 29 28 29 29 28 29 29 29 29 29 31 31 30 30 30 31 31 30 29 28 28 27 26 25 25 25 25 24 24 25 25 25 25 25 25 24 23 21 19 17 16 15 15 15 15 15 14 14 13 13 13 13 13 13 13 14 15 15 14 15 16 16 16 16 16 15 15 14 12 11 11 12 14 15 15
32 32 31 30 30 30 28 27 26 24 23 22 21 18 30 41 40 33 30 30 31 29 30 29 29 29 28 29 30 30 30 29 29 30 30 29 30 30 30 30 29 29 28 28 26 26 26 26 26 25 26 26 26 26 26 26 25 24 23 22 19 17 16 16 16 16 16 16 16 15 14 14 13 13 12 12 12 13 14 15 16 16 16 17 17 16 16 16 16 15 14 13 13 14 15 16 17
31 31 30 29 29 29 29 27 26 21 19 25 29 24 33 38 28 26 31 31 31 31 30 30 30 30 29 29 30 32 32 32 30 28 27 28 29 29 30 30 29 29 28 28 27 27 27 27 27 27 27 27 27 26 26 26 25 24 23 22 20 18 16 17 17 18 18 17 17 16 15 14 14 13 12 12 12 12 13 14 16 18 19 18 18 18 17 17 16 17 16 15 15 16 17 18 18
30 29 29 28 28 28 28 26 26 21 19 29 34 36 42 37 25 26 31 30 32 31 30 30 29 30 31 30 30 31 31 31 31 30 29 29 29 29 29 29 29 29 28 29 28 28 28 28 28 27 27 27 27 27 27 26 25 24 23 22 19 17 17 18 18 19 19 18 18 17 16 15 14 14 13 13 13 13 13 14 15 17 19 21 20 19 18 17 17 18 18 17 16 17 18 19 20
28 28 28 27 27 27 26 25 25 22 24 34 38 39 40 35 28 30 32 31 32 31 30 29 28 30 31 31 31 31 30 29 30 31 31 30 30 29 29 29 29 29 29 30 30 29 29 28 28 27 27 27 28 28 28 27 25 24 23 21 19 17 17 18 19 19 19 19 19 18 17 15 15 15 15 14 14 14 13 14 15 16 18 21 22 21 20 19 18 18 20 19 17 18 19 19 20
26 27 27 26 26 26 26 24 23 22 28 38 40 37 34 33 32 31 31 32 33 32 32 28 26 28 29 30 30 31 30 29 30 30 31 30 30 30 30 30 30 31 31 31 31 30 29 28 27 27 27 27 28 28 28 27 26 25 23 21 18 17 17 18 19 20 19 19 19 18 17 16 16 16 16 16 15 15 14 14 15 16 18 20 22 22 21 20 19 18 20 21 19 18 20 20 21
25 25 26 26 25 25 24 20 18 19 30 40 37 35 33 32 31 30 30 32 34 32 32 30 28 29 29 29 28 29 29 29 30 31 31 31 31 32 32 32 32 32 32 32 31 30 29 28 27 27 27 27 28 28 27 26 25 25 24 22 18 17 17 18 19 19 19 19 19 18 18 17 17 17 18 17 16 16 15 15 15 16 18 20 22 23 22 22 21 20 20 22 21 19 20 21 22
24 24 25 24 24 24 20 16 15 18 31 36 31 35 34 30 30 30 31 32 34 33 32 32 31 30 30 31 31 32 31 30 31 31 31 32 33 33 33 34 34 33 32 32 31 30 29 28 27 27 27 27 27 27 26 25 25 24 23 22 19 18 18 18 18 19 19 19 19 18 18 18 18 18 19 19 18 17 16 16 15 16 18 21 22 23 23 22 23 22 21 23 23 21 21 23 24
23 23 24 24 24 23 20 20 22 27 33 29 29 37 31 27 30 31 32 32 33 34 33 34 32 31 30 30 31 34 34 31 30 30 31 32 33 33 33 33 33 33 32 32 31 30 29 28 27 27 27 27 27 27 25 25 24 23 23 22 21 20 19 18 18 19 20 19 19 19 19 19 19 19 20 19 18 18 17 16 16 16 17 20 22 23 23 22 22 23 22 23 24 23 23 24 25
22 23 24 24 24 25 26 27 26 26 27 25 33 37 27 28 31 30 31 31 31 30 31 35 33 32 32 29 29 31 32 32 32 32 32 32 32 32 32 33 33 32 32 31 30 29 28 27 26 27 27 26 25 24 24 24 23 23 23 22 22 21 20 20 19 20 20 20 19 18 18 19 20 20 20 19 19 18 18 17 15 15 16 18 20 22 23 23 22 23 23 23 25 26 26 26 27
22 23 24 24 24 26 26 27 25 21 18 23 38 36 28 31 31 29 31 30 29 29 30 33 32 33 34 32 31 31 30 31 32 32 32 32 31 31 31 32 32 32 31 30 29 28 27 27 26 28 27 26 24 23 23 24 24 24 23 23 22 22 21 21 20 20 21 20 19 18 18 19 20 20 20 19 18 18 17 16 15 14 14 16 19 21 23 24 23 22 23 23 24 26 27 28 29
22 22 24 24 25 24 22 25 26 23 17 26 42 36 28 30 29 29 31 29 29 33 33 33 32 33 34 33 31 31 29 29 30 31 30 30 30 30 31 31 31 31 30 29 28 28 27 26 26 28 27 25 24 23 24 24 25 25 24 24 23 22 22 22 21 21 21 20 19 19 18 19 20 20 19 19 18 18 16 15 15 14 13 15 18 21 23 24 23 22 22 23 23 23 25 28 30
21 22 24 23 24 23 21 21 23 25 19 27 43 34 24 28 29 29 29 28 31 33 31 32 34 33 34 33 30 27 25 25 26 28 28 27 28 29 30 30 30 30 29 28 27 27 26 26 26 27 26 25 24 24 24 24 24 24 24 24 23 22 22 21 21 22 21 19 19 19 19 19 20 18 18 18 17 16 16 15 14 14 14 14 17 20 22 23 23 22 21 21 23 22 23 27 31
21 23 23 23 23 20 22 24 25 29 24 29 38 28 21 27 29 28 28 28 31 31 30 33 34 34 36 34 29 25 22 23 24 26 25 25 27 28 28 29 29 29 29 29 28 28 27 27 27 27 26 27 27 26 26 25 24 24 24 24 23 22 22 20 20 21 19 19 19 19 20 20 19 18 17 17 16 15 15 15 14 14 14 14 16 18 20 21 22 22 21 20 21 19 18 24 31
21 22 23 24 22 19 29 35 32 31 30 33 34 26 24 26 28 27 26 27 28 30 31 33 34 36 37 34 31 27 23 24 26 25 24 25 27 27 28 28 28 28 29 29 28 27 28 27 26 27 27 27 28 27 27 26 25 24 24 23 22 23 22 21 20 20 19 19 19 19 20 19 18 17 16 16 16 15 14 13 14 14 14 14 15 17 18 20 22 22 22 22 21 19 15 19 28
21 23 23 22 23 27 36 35 29 29 31 34 31 26 25 25 27 26 25 26 27 28 31 32 33 35 35 33 30 27 25 27 28 26 25 26 26 26 27 28 28 28 28 28 27 27 28 27 26 26 27 27 28 28 28 28 27 25 24 23 22 23 23 22 21 20 19 19 19 17 18 19 17 17 16 15 14 14 13 12 12 13 13 14 14 16 18 20 22 23 24 24 23 21 17 18 25
22 23 22 23 28 33 34 29 28 31 30 30 28 25 25 25 24 25 25 26 26 28 30 30 32 34 34 32 27 25 26 26 25 24 24 25 24 25 26 27 27 28 28 27 28 28 28 27 26 25 26 26 27 27 29 30 29 26 24 23 23 23 23 23 22 21 20 20 19 18 19 19 17 16 16 15 14 14 12 11 11 11 11 12 14 16 18 20 21 22 23 24 23 21 19 19 23
22 21 21 26 30 29 29 29 29 29 27 26 26 25 25 23 22 24 24 25 27 27 29 28 31 35 34 31 27 25 25 23 22 22 23 24 24 26 26 27 27 27 28 27 27 27 26 26 25 25 26 26 26 27 28 30 30 28 25 24 24 24 23 23 23 22 21 21 20 20 19 19 18 17 16 16 16 14 12 12 11 11 10 11 14 15 17 19 20 22 23 24 23 21 20 21 22
21 21 22 27 28 26 27 28 26 26 25 25 26 25 23 21 23 24 22 26 28 25 25 26 30 33 31 31 31 31 29 26 26 26 26 26 26 27 27 28 27 27 27 27 26 25 24 24 24 25 26 26 26 27 28 28 29 29 27 26 25 24 23 22 22 21 22 21 20 20 19 19 19 18 17 17 17 15 14 13 12 12 10 12 14 15 16 18 19 20 22 24 23 23 22 23 23
21 23 25 25 24 25 26 26 25 24 24 25 25 23 22 22 24 23 21 27 27 24 25 26 29 29 27 29 30 32 31 28 28 28 27 27 27 27 27 27 27 27 26 25 24 23 23 24 25 26 26 25 26 27 28 28 28 29 28 28 26 25 25 24 23 22 21 21 19 18 19 18 18 19 18 17 17 16 15 13 13 13 11 13 15 15 16 17 18 19 20 23 23 23 23 23 24
24 25 25 24 23 24 25 25 25 23 24 25 23 23 23 23 23 21 22 26 24 24 26 26 28 26 25 27 29 29 28 26 27 26 26 25 25 26 27 27 26 26 25 24 23 23 24 24 25 25 25 25 25 26 27 27 27 27 28 27 27 26 27 27 26 25 22 21 20 18 19 20 20 19 18 18 18 16 16 15 14 14 14 15 16 15 15 15 17 18 18 20 22 22 23 23 24
25 25 25 24 23 25 25 25 23 22 24 24 23 24 24 23 21 22 25 25 23 24 24 25 26 25 25 26 28 28 26 25 25 25 25 25 25 26 27 26 26 26 25 24 24 24 25 24 25 25 24 24 24 25 25 25 25 25 26 26 27 27 27 28 27 26 24 22 21 19 20 21 21 20 19 19 19 18 19 19 16 15 16 18 18 16 15 14 15 16 17 18 20 22 23 24 23
24 23 25 24 24 26 25 25 23 24 25 24 23 24 24 22 20 22 25 23 21 23 24 24 24 25 25 26 26 25 25 25 24 25 26 26 27 26 26 26 25 26 25 25 25 25 25 24 25 24 23 22 23 23 23 23 23 23 25 26 26 27 28 28 27 26 25 23 22 21 22 22 22 22 21 20 19 20 20 19 17 17 18 20 19 16 14 14 15 16 16 17 19 21 24 24 24
22 22 25 25 26 27 26 26 25 25 26 25 23 24 24 20 19 24 23 20 20 22 24 23 22 23 24 25 25 25 25 24 24 25 26 26 25 25 25 26 26 26 26 26 26 25 25 25 24 22 22 22 22 23 22 21 21 22 24 26 26 27 28 28 27 26 25 24 23 23 24 23 22 22 21 21 20 21 20 19 18 18 19 20 19 16 15 15 16 16 16 17 18 21 23 24 25
23 24 24 25 27 27 26 27 26 25 27 27 23 23 24 17 18 27 23 19 21 21 22 22 21 22 22 23 22 24 24 22 23 24 25 25 24 25 26 27 27 27 27 26 26 25 25 24 23 22 21 22 22 22 22 21 21 22 24 26 26 27 28 28 28 27 26 25 25 24 24 24 23 23 22 22 22 21 21 20 20 19 20 20 19 18 17 16 16 15 16 18 18 20 21 20 23
24 24 23 25 24 26 28 28 26 26 28 28 22 18 18 12 17 28 25 21 22 20 21 21 21 21 21 21 19 22 24 22 24 25 26 26 25 27 27 27 27 27 27 26 26 25 24 24 23 22 21 22 22 23 23 22 22 22 24 25 26 27 28 28 28 27 27 26 25 25 25 25 24 24 23 23 23 22 21 21 21 21 20 20 20 19 18 18 16 16 17 18 18 18 19 18 19
23 20 21 22 15 20 29 27 24 26 30 27 20 14 10 10 18 24 22 22 22 20 22 22 21 22 22 22 20 23 26 24 26 27 27 27 26 27 27 28 28 27 27 26 26 25 25 25 24 23 22 22 23 23 23 22 22 22 23 24 25 26 27 28 28 27 27 26 26 25 25 25 24 24 24 25 24 23 23 23 22 21 20 19 20 20 19 18 17 18 18 19 18 18 19 19 18
21 16 16 15 9 18 29 26 22 23 28 27 20 13 9 16 26 23 19 22 22 20 23 23 22 23 24 24 24 26 28 26 26 27 27 28 27 27 28 29 29 28 28 27 27 26 26 26 26 25 24 24 24 24 24 23 23 23 23 24 24 25 27 27 27 27 27 27 26 26 24 24 24 25 24 25 25 24 24 23 21 21 21 20 20 20 19 19 19 20 20 20 19 19 19 19 19
17 13 11 10 12 18 25 22 21 23 28 24 18 14 11 20 34 32 23 22 23 21 22 25 24 26 26 25 26 27 27 26 26 27 27 27 26 27 29 29 29 28 28 28 28 27 27 27 26 26 25 25 24 24 25 24 24 24 24 24 25 25 26 27 28 27 27 27 27 26 24 24 25 25 24 25 24 23 24 23 20 20 21 20 20 20 19 20 21 21 21 20 19 20 19 19 20
14 12 12 12 16 15 17 16 17 23 27 18 15 21 18 18 29 33 29 22 22 22 22 25 25 26 26 26 27 27 27 27 27 27 29 29 28 27 28 28 27 26 26 27 28 28 28 28 27 26 25 25 25 25 26 26 25 25 25 25 25 26 26 27 28 28 28 28 27 26 25 24 25 24 24 25 24 23 23 23 21 20 21 21 22 21 20 22 21 20 20 20 20 20 20 20 20
10 13 14 12 19 18 11 11 12 17 22 15 14 23 24 16 17 21 25 22 20 22 24 25 25 25 25 27 28 28 28 27 27 28 29 29 27 25 26 25 24 23 24 25 27 29 29 28 27 26 25 25 25 26 27 27 27 26 26 26 26 26 26 27 28 29 29 28 28 27 25 24 25 25 24 25 25 25 24 22 21 20 21 22 22 22 21 23 22 21 21 21 21 21 20 20 19
8 12 12 9 14 17 10 14 19 17 18 18 16 18 22 19 16 16 20 22 21 23 26 26 25 26 26 27 27 30 31 28 28 28 27 26 23 22 23 23 23 23 24 25 27 29 29 29 28 27 26 26 26 27 26 28 28 28 28 28 28 27 26 26 27 28 28 29 29 27 26 25 25 26 25 25 26 26 24 22 21 21 22 22 23 22 21 23 24 23 22 21 20 22 22 21 20
11 11 10 9 11 13 12 19 25 20 17 18 14 13 19 22 20 17 17 20 22 24 26 26 26 27 26 27 27 30 33 30 28 27 26 26 22 21 22 23 23 23 24 26 28 29 29 30 29 27 27 27 27 27 26 26 27 28 28 29 29 28 27 27 27 28 28 29 29 28 28 27 26 26 26 26 26 26 25 23 23 22 22 23 23 22 22 23 23 24 23 22 21 22 22 22 22
13 12 11 11 10 12 15 18 18 17 17 15 12 13 19 24 23 23 20 19 20 23 26 25 26 27 27 28 28 29 33 32 29 24 23 24 21 19 22 22 22 23 24 26 27 28 29 30 29 28 27 27 27 27 27 26 26 27 27 28 28 29 29 28 28 29 29 29 29 29 29 29 28 28 28 27 27 27 26 25 24 23 22 23 23 23 22 22 23 23 23 23 23 23 23 23 23
12 12 12 13 12 12 17 20 15 15 16 14 13 14 17 20 22 25 22 18 19 22 24 25 26 27 27 28 28 28 30 31 28 23 22 23 21 21 23 23 22 22 24 25 26 27 28 30 30 27 27 26 26 26 26 26 25 25 26 26 26 27 28 29 29 30 30 30 31 31 31 30 30 29 29 28 28 28 27 26 25 23 23 23 24 24 23 23 23 22 22 23 24 24 23 23 23
14 13 15 15 13 13 18 22 20 18 17 17 18 18 17 16 18 23 22 19 20 20 21 23 24 25 26 26 26 26 27 28 26 23 23 24 23 23 23 23 22 23 24 25 26 27 28 31 30 28 27 26 25 25 26 27 26 25 25 25 25 26 27 28 29 29 30 31 31 32 31 31 30 29 29 28 28 28 28 27 26 25 24 23 24 25 25 24 24 23 23 23 24 24 24 24 24
17 17 18 16 13 15 18 21 21 17 16 19 21 23 20 17 19 23 23 23 23 21 22 23 23 23 24 24 24 24 25 26 26 23 22 23 24 23 23 24 23 24 24 24 26 27 29 32 32 30 28 27 25 24 26 27 26 26 25 25 25 25 26 26 27 27 28 29 29 30 30 29 29 28 28 27 27 27 27 27 27 26 26 25 25 26 26 26 25 24 24 23 23 23 24 25 26
19 19 21 21 19 20 19 21 23 18 16 19 20 22 19 16 19 21 23 24 22 22 23 23 24 24 24 25 24 25 25 26 27 26 23 22 23 23 24 25 25 25 25 25 27 29 31 33 34 33 30 28 26 24 25 27 27 26 26 25 25 25 25 25 26 26 27 27 27 27 27 27 27 27 27 26 26 26 26 27 27 27 27 27 27 26 27 27 26 26 26 24 23 24 25 26 26
20 19 20 24 26 27 24 24 26 22 20 22 21 21 18 16 19 21 23 24 22 22 24 25 26 26 26 27 27 27 27 27 28 28 24 22 23 24 24 24 25 26 27 29 30 31 32 34 36 35 32 29 27 25 26 27 26 26 26 25 25 25 24 24 25 25 26 26 27 27 26 26 25 25 25 25 25 25 26 26 26 27 27 27 27 27 28 28 27 27 27 26 25 25 26 27 27
21 21 21 22 24 28 27 25 26 24 23 26 25 22 21 20 20 21 24 23 20 22 25 25 27 28 28 29 30 30 29 28 28 28 26 23 23 25 25 25 27 28 30 32 32 32 34 35 37 37 35 31 29 27 27 28 26 25 25 25 24 24 24 24 24 25 25 25 26 26 26 25 24 24 23 24 24 24 24 25 26 26 27 27 27 27 28 28 28 28 28 27 27 26 27 27 28
22 22 21 21 21 24 24 22 24 23 24 27 25 23 25 25 22 25 30 26 22 24 26 27 27 28 29 29 30 30 29 29 29 28 29 26 25 27 27 27 28 29 31 33 33 33 35 37 38 38 36 33 31 30 28 28 26 24 24 24 24 24 23 24 24 24 25 25 24 24 24 24 23 23 23 22 22 23 23 23 24 25 25 26 26 27 27 28 28 28 28 28 27 27 27 27 27
21 21 20 20 20 21 21 21 20 21 25 25 22 23 25 23 20 23 29 26 22 23 26 28 30 29 28 28 28 30 30 30 30 29 30 29 29 29 30 30 30 31 32 33 34 35 36 38 39 40 38 35 33 31 29 27 26 24 23 22 23 23 23 23 24 24 24 24 23 23 22 22 22 22 22 22 22 22 22 22 22 22 23 24 24 25 26 27 28 28 28 28 27 26 26 26 26
20 20 19 19 19 19 20 20 19 22 25 23 22 24 26 24 19 19 25 26 21 22 25 26 28 29 28 28 28 31 31 31 31 31 31 31 31 31 32 33 33 33 34 35 36 36 37 39 40 41 39 35 32 30 28 26 24 23 22 21 21 22 22 23 23 23 23 22 22 21 20 20 20 20 20 21 21 21 21 21 20 21 21 22 23 24 25 26 27 27 27 27 26 25 25 25 25
19 18 18 18 19 19 19 18 18 21 22 21 21 24 26 26 20 20 27 27 24 24 25 27 30 30 30 30 30 31 32 31 32 32 33 33 33 34 34 35 35 36 36 37 37 37 39 40 41 42 39 34 29 27 26 24 23 22 21 20 20 20 21 22 22 21 21 21 20 20 19 19 18 18 18 19 19 19 19 19 19 19 20 20 21 22 24 25 25 25 25 25 24 24 23 23 23
17 16 16 18 18 17 17 18 18 18 18 18 18 19 23 22 20 25 29 27 25 25 26 28 29 29 29 29 29 29 30 31 31 32 33 34 34 35 36 37 38 38 38 38 38 39 40 40 42 42 36 29 26 25 24 22 21 21 20 19 19 19 20 21 21 20 19 19 19 19 18 18 18 17 17 17 17 18 17 17 18 18 19 19 20 20 21 22 23 23 23 23 23 22 22 22 22
14 14 16 18 18 17 18 18 16 14 16 19 18 18 20 19 22 28 28 26 27 27 27 27 26 26 27 26 25 25 26 27 28 29 31 32 33 34 36 38 38 38 38 39 39 41 41 41 42 39 31 27 25 24 23 21 21 21 21 20 19 19 20 20 20 19 18 18 17 18 18 17 17 17 16 17 17 17 16 16 16 17 18 19 19 20 20 21 21 21 21 21 21 21 21 20 20
12 13 15 17 17 18 19 18 15 13 16 20 20 19 19 18 22 25 24 25 26 25 26 26 27 26 24 23 23 23 23 23 24 25 27 28 30 31 33 35 35 35 35 37 38 38 38 39 38 32 27 26 25 24 23 22 22 22 22 20 19 19 20 20 20 19 19 18 18 19 19 19 18 18 17 17 18 17 17 17 16 16 17 18 19 19 20 20 20 20 20 20 20 20 20 20 19
11 13 14 15 16 18 20 20 18 18 19 21 21 20 20 21 24 25 24 24 24 25 27 27 28 28 26 25 25 25 23 22 22 23 25 26 27 28 29 29 29 30 31 31 32 32 33 33 31 28 27 26 24 23 23 23 23 23 22 21 19 19 20 20 20 20 19 20 20 20 20 20 20 19 19 19 19 19 18 18 17 17 17 17 18 19 19 20 20 20 19 19 19 19 19 20 19
12 12 13 15 15 17 19 20 20 21 22 23 24 24 24 25 26 27 26 26 26 27 28 28 27 28 28 28 27 25 23 22 22 22 23 24 26 26 26 25 25 25 25 25 25 26 27 28 27 27 27 24 22 22 23 23 24 23 22 22 21 21 21 20 20 20 20 20 20 20 20 19 19 19 19 19 19 20 19 19 19 18 18 18 18 18 19 19 19 19 19 18 18 18 18 19 19
13 13 14 15 16 16 18 19 20 21 22 23 23 24 25 24 24 25 24 23 24 25 25 26 26 26 27 28 26 25 24 23 22 22 22 23 23 24 24 23 23 23 22 22 22 23 24 26 26 26 24 22 21 24 24 25 26 25 23 24 23 23 22 21 21 21 21 21 21 21 20 20 19 19 19 18 18 18 19 19 19 19 19 19 18 19 19 19 19 19 19 18 18 18 18 18 18
14 15 16 15 14 15 17 19 21 21 22 23 22 22 23 20 20 24 22 19 22 23 23 23 24 25 26 27 26 25 24 23 22 22 22 22 22 22 22 23 23 23 24 24 24 24 25 25 25 24 23 22 23 26 27 27 27 25 24 25 25 24 23 22 22 21 22 23 22 23 22 21 20 19 18 18 18 17 17 18 18 19 19 19 19 19 19 20 20 20 19 19 18 18 18 18 19
15 16 16 14 15 17 17 19 22 22 23 23 23 23 21 16 17 23 23 20 22 22 23 24 24 24 25 25 26 25 24 23 23 23 22 22 22 22 23 24 25 27 28 27 27 27 26 26 25 25 25 25 26 28 29 29 27 25 25 25 25 25 24 24 23 23 23 23 23 24 23 22 20 18 17 17 16 16 16 16 15 16 16 17 17 18 19 20 20 21 21 20 20 19 19 19 19
16 16 16 15 18 19 19 21 21 22 22 23 24 24 22 19 22 24 23 24 25 22 23 25 25 24 24 24 26 27 26 25 24 24 23 23 24 24 27 29 29 30 32 32 32 31 31 30 30 29 29 29 30 31 32 31 28 26 25 25 26 26 25 25 24 24 24 25 25 24 24 23 21 19 17 16 16 16 16 15 14 14 14 14 14 15 17 18 19 20 21 21 22 22 22 21 21
18 20 20 19 19 20 21 23 22 22 24 24 24 25 25 26 27 26 24 27 29 25 24 25 24 24 24 25 27 28 28 28 27 26 25 26 26 27 29 31 30 30 31 32 33 33 33 35 36 34 34 33 33 33 34 34 32 30 27 26 26 26 25 25 25 25 25 27 27 26 25 25 24 22 19 17 16 15 16 16 16 17 16 15 15 16 16 16 17 18 19 20 21 22 23 23 23
Wind_Direction
265 263 262 260 259 258 258 258 256 257 258 257 253 238 248 256 251 255 261 250 248 254 251 251 252 248 247 247 248 246 247 252 252 253 255 254 252 253 256 256 257 257 255 257 261 263 265 268 273 276 279 280 282 282 281 281 281 282 284 286 288 290 294 297 296 293 290 287 284 280 275 271 267 265 262 256 248 241 236 230 227 224 223 222 221 221 217 214 222 234 237 235 223 211 209 211 214
264 262 261 259 257 257 255 255 252 254 257 253 256 247 246 256 258 255 251 248 247 254 254 250 251 247 247 246 247 250 249 250 251 251 252 252 251 253 256 256 259 258 257 259 261 264 267 271 274 276 279 280 281 281 280 280 280 281 282 283 285 288 292 295 294 291 288 283 279 274 268 263 261 259 256 252 248 242 237 235 233 229 227 225 225 226 223 218 220 228 234 234 227 214 209 211 214
263 261 260 258 256 255 252 251 248 248 247 246 265 258 249 258 262 252 245 250 252 251 252 251 252 250 247 247 247 250 249 249 251 250 249 249 251 252 254 256 257 257 258 259 261 264 268 274 276 278 280 280 280 280 279 278 279 279 281 281 282 285 290 292 291 289 283 278 273 267 262 258 256 254 251 248 245 241 237 236 238 237 233 230 229 229 229 225 221 225 231 233 227 217 211 211 214
260 260 258 256 254 252 250 247 245 241 235 229 241 252 252 258 253 249 249 252 253 249 250 252 253 252 248 247 247 248 250 249 249 250 248 248 250 253 254 257 257 258 259 259 262 265 271 276 277 280 281 281 281 279 277 277 277 278 279 279 279 282 287 288 287 284 278 273 268 264 259 255 253 250 248 247 245 243 239 237 240 242 240 237 235 234 234 232 227 226 228 230 227 218 212 211 214
258 258 256 255 251 250 250 246 244 237 234 217 209 254 255 251 250 250 254 250 249 249 249 251 251 252 249 247 247 248 250 248 249 251 250 249 249 253 255 256 257 258 259 261 265 269 274 277 279 281 283 283 282 279 277 277 277 277 278 278 278 280 283 283 281 278 273 270 267 263 258 253 251 250 248 247 246 245 243 241 242 244 244 242 240 240 238 237 233 230 228 226 224 219 212 211 213
256 256 255 253 251 251 249 245 244 238 241 221 204 247 251 246 252 251 250 248 248 248 249 251 249 251 250 249 248 246 248 249 251 252 250 249 250 252 255 256 259 260 262 266 268 272 275 278 281 283 284 284 282 279 278 277 277 277 277 277 278 280 281 279 276 274 271 268 266 264 262 257 252 250 249 250 250 249 247 245 244 244 246 244 242 241 241 240 237 234 231 228 223 218 213 211 213
255 254 253 252 251 250 247 244 243 235 247 240 215 226 241 244 254 247 244 246 247 248 249 251 249 250 250 251 251 248 248 249 249 251 251 251 252 253 255 257 260 262 264 267 269 273 276 279 282 284 284 283 281 279 279 279 279 278 277 276 278 280 279 275 274 273 272 268 267 267 265 259 253 249 247 248 251 252 252 250 247 245 245 245 243 241 241 241 239 235 233 230 224 218 214 211 211
254 253 252 251 250 249 248 244 242 230 238 247 230 227 238 249 253 243 244 245 247 248 248 251 249 249 250 250 251 251 248 248 248 250 253 254 254 254 256 258 260 262 265 268 271 274 277 280 282 283 282 280 279 279 279 279 280 279 278 277 277 277 275 273 273 274 273 270 269 268 266 259 252 248 244 243 246 250 253 254 254 251 247 245 243 242 242 241 240 236 233 230 226 221 217 214 212
253 252 251 249 249 249 248 245 242 233 235 244 241 238 242 249 247 242 245 244 246 248 248 250 250 248 248 248 249 250 248 247 249 250 253 254 254 255 257 258 259 262 266 270 273 275 278 280 281 280 279 278 279 279 279 280 281 281 279 277 275 274 272 273 275 275 274 271 269 267 265 259 251 246 241 239 242 248 252 254 255 256 253 248 245 243 243 243 242 239 235 230 225 222 220 217 214
252 250 249 247 247 248 247 247 246 242 245 246 246 246 244 245 243 241 243 245 246 245 247 248 248 248 245 247 250 251 248 248 250 250 251 253 254 255 257 258 261 265 268 270 273 276 279 280 279 277 276 277 278 279 281 282 282 281 279 277 276 276 275 276 276 275 274 271 269 267 265 260 252 245 241 239 242 247 252 255 254 255 256 254 250 245 244 246 245 242 240 234 224 220 220 219 216
250 249 248 246 244 246 246 248 255 257 254 250 249 249 244 243 243 241 241 245 246 243 245 246 246 249 245 247 251 248 246 248 249 249 251 252 254 255 257 260 263 265 267 270 272 276 278 280 278 277 276 277 279 281 283 284 282 281 281 282 281 278 275 276 275 274 272 270 269 267 265 260 252 246 242 241 244 248 252 256 256 254 254 256 255 251 247 247 248 246 244 241 229 218 219 219 217
247 246 245 244 241 241 242 243 245 242 249 255 254 250 246 243 243 242 241 242 245 243 243 244 245 247 247 247 247 247 249 249 246 247 250 252 254 256 259 261 263 265 268 270 272 275 278 279 278 277 278 278 279 281 283 283 282 281 281 283 281 277 273 273 274 272 269 268 267 265 263 259 251 246 243 244 247 250 254 258 258 255 252 252 255 255 251 247 249 249 246 246 237 221 218 219 217
244 243 242 240 238 235 233 232 229 230 248 262 256 250 248 244 241 240 239 240 244 244 243 243 244 245 248 247 245 249 251 247 245 246 249 251 254 257 260 263 265 266 268 270 273 276 278 278 278 279 279 279 278 279 282 282 280 280 279 278 277 275 273 271 271 269 267 266 264 262 260 256 251 247 245 246 251 254 258 261 260 256 251 249 252 255 255 250 248 250 248 247 242 228 217 217 217
243 241 239 238 237 233 232 232 234 244 257 260 254 252 248 241 239 238 239 240 242 245 245 241 241 245 247 248 248 251 250 248 249 248 249 251 254 257 260 263 264 266 268 271 274 276 277 277 279 279 278 280 278 279 282 279 276 276 275 273 273 274 272 269 267 265 265 265 263 260 257 254 251 249 248 250 255 259 261 264 263 257 252 249 250 253 255 252 247 248 249 248 246 237 222 215 216
240 239 238 237 235 236 240 240 238 245 256 254 254 253 246 242 239 238 238 238 240 240 241 241 242 245 246 249 251 250 249 250 250 249 250 250 253 257 259 262 264 267 269 272 274 274 275 276 280 278 276 281 279 280 282 277 273 273 271 270 269 269 267 265 264 262 263 262 259 256 254 253 251 251 252 254 258 261 263 267 266 261 255 249 247 248 251 252 248 246 249 249 248 244 233 218 214
240 240 238 236 236 238 243 246 241 236 245 254 253 250 245 246 241 238 239 237 240 238 239 244 244 244 246 248 252 254 252 251 250 249 248 248 252 256 259 262 264 266 269 273 273 274 275 277 280 277 279 282 279 281 281 277 275 274 272 271 268 265 263 263 261 259 259 258 256 254 253 253 254 252 253 256 258 258 261 266 268 263 255 248 243 243 246 250 252 250 250 252 251 250 246 227 214
241 240 238 237 237 238 241 247 247 235 237 250 249 248 246 249 245 240 240 237 241 242 240 243 243 244 246 245 250 254 249 247 248 244 243 247 253 256 259 262 264 266 268 271 273 274 276 279 279 278 282 283 280 283 281 278 277 275 273 272 270 267 264 261 258 257 257 254 253 254 253 254 256 254 253 257 257 257 261 263 266 264 255 247 243 242 245 249 254 255 254 257 257 254 253 236 215
241 239 238 238 236 240 242 236 236 230 227 244 251 252 247 248 249 243 241 240 241 243 241 242 242 241 242 243 244 243 237 239 241 239 242 249 254 257 259 262 264 266 268 270 273 275 276 279 279 280 284 283 281 282 280 279 278 275 273 271 270 269 265 260 255 254 254 252 251 251 253 255 255 255 256 259 260 260 263 265 265 261 254 247 243 243 245 248 253 256 256 255 257 254 254 243 220
242 241 237 237 235 237 239 233 235 237 234 246 253 252 246 245 248 245 243 242 241 242 243 244 243 242 243 244 244 242 241 239 238 241 248 250 252 256 258 261 263 265 267 270 272 273 275 278 280 282 283 282 280 280 279 277 276 275 271 269 268 267 266 264 259 255 252 251 250 248 250 252 252 253 255 257 260 262 261 263 261 256 252 247 244 244 244 246 249 253 254 251 255 258 259 250 227
244 242 238 238 236 234 240 239 241 244 241 247 251 250 249 246 246 247 244 243 243 242 244 244 244 245 244 245 246 246 242 238 239 244 248 248 250 253 256 259 261 264 267 268 271 275 278 279 281 282 281 281 281 280 277 273 273 273 271 270 268 265 266 265 262 259 255 253 252 251 252 254 253 254 258 258 263 267 264 259 254 251 250 249 247 246 245 245 248 250 253 251 253 257 257 255 236
245 243 238 238 238 238 244 246 243 242 242 245 249 249 250 246 243 246 245 245 244 241 243 244 245 245 243 241 239 234 230 232 237 240 242 246 248 250 254 258 261 265 267 270 274 277 279 280 281 281 280 280 280 279 277 275 274 272 271 270 266 263 263 264 262 260 259 256 253 251 250 255 256 255 259 264 267 268 266 257 249 245 244 247 247 246 246 246 248 251 254 253 252 253 254 258 246
249 247 240 240 243 245 247 247 243 242 244 246 248 247 247 246 244 243 243 246 244 239 240 240 242 245 243 238 233 231 231 233 236 238 243 247 249 253 255 258 261 265 269 273 275 277 278 278 279 279 279 278 276 275 275 275 274 273 270 268 265 262 260 261 260 257 258 256 251 249 247 250 253 254 256 259 263 263 262 260 256 251 247 249 248 245 246 246 248 251 255 256 254 254 254 257 255
251 248 242 243 246 248 247 247 246 244 244 245 245 245 245 246 245 242 240 244 244 244 245 243 243 246 243 242 245 245 242 240 243 246 249 250 252 256 257 259 263 267 270 273 275 276 277 276 277 277 276 276 274 272 270 271 271 272 270 266 266 264 264 263 259 253 250 251 250 248 247 246 250 255 254 255 259 260 262 263 263 262 257 257 253 246 247 248 248 249 253 258 259 259 257 257 261
248 247 245 245 247 247 247 248 248 245 245 245 245 247 246 245 245 242 241 244 246 251 253 250 250 249 247 247 246 242 240 243 248 249 249 252 254 256 260 264 268 271 273 275 276 278 277 277 276 275 275 273 271 270 268 268 267 267 266 265 264 263 265 265 263 257 249 251 251 246 249 251 253 257 259 261 264 265 265 267 269 270 269 267 263 254 250 250 251 251 253 257 259 260 259 259 260
243 244 245 245 246 246 248 248 247 247 247 247 247 248 247 246 248 248 248 247 247 251 254 254 254 253 252 244 232 231 238 245 247 247 249 253 256 259 264 268 272 275 276 278 280 280 278 277 276 275 275 272 270 269 269 268 264 261 260 260 260 258 258 258 260 259 255 257 255 250 253 255 259 262 263 265 268 270 271 273 275 276 278 274 267 261 256 254 255 256 256 258 260 258 256 258 259
240 241 244 245 245 246 247 247 248 249 249 249 249 251 251 249 251 253 252 249 247 249 251 254 254 253 253 241 230 234 241 243 244 247 251 255 258 263 267 271 275 277 278 280 281 281 279 277 275 274 273 271 269 270 270 268 262 258 255 254 253 252 252 252 252 253 253 255 254 254 253 253 260 265 265 266 266 267 270 273 276 278 278 274 269 265 263 264 263 260 259 260 261 260 256 255 257
242 240 245 246 246 247 246 248 250 249 250 250 251 253 253 252 253 253 251 249 247 248 247 248 250 251 249 239 235 240 241 243 246 249 254 257 261 266 270 273 276 277 278 280 281 281 279 275 273 271 269 266 267 269 270 267 262 256 253 251 249 248 247 248 249 248 249 250 251 253 251 250 257 263 265 268 268 266 265 267 271 273 271 270 271 268 268 270 268 263 261 261 261 262 259 254 255
245 242 244 245 245 246 246 248 249 250 251 248 250 254 254 256 257 250 250 252 251 250 249 246 247 248 244 239 239 240 242 248 251 252 256 260 265 269 271 273 273 275 278 281 281 279 277 274 271 266 262 262 265 270 271 268 262 256 253 251 249 246 245 245 245 246 247 249 250 252 253 255 258 261 263 266 268 267 265 264 265 266 266 270 271 269 271 268 263 264 263 262 261 264 264 259 254
245 243 245 246 248 248 247 249 247 248 251 246 245 253 258 258 251 251 254 256 254 253 254 252 250 246 236 232 237 243 246 253 256 257 261 264 268 268 269 271 273 277 279 280 279 277 276 273 269 265 261 262 265 268 271 269 264 258 255 253 250 247 245 245 244 244 245 247 249 250 254 259 261 262 263 263 266 267 269 269 266 265 266 269 269 269 272 264 259 264 265 264 262 264 270 270 261
246 246 247 248 252 254 249 246 246 246 246 246 244 249 264 261 242 251 252 251 254 252 254 255 254 252 243 235 238 244 243 251 259 259 263 264 265 266 268 272 274 277 278 279 278 275 274 273 271 268 266 266 268 269 270 269 266 261 257 256 253 249 246 246 246 246 245 246 249 250 253 259 263 265 266 267 267 267 269 269 267 266 264 265 266 268 267 261 260 263 264 266 264 263 269 275 272
248 247 246 248 254 260 253 244 242 245 245 244 238 229 238 233 237 250 245 241 249 250 252 252 251 255 255 253 253 249 245 251 258 257 261 263 264 268 271 273 274 277 279 279 277 274 274 275 275 275 274 272 271 271 270 269 267 263 259 257 256 254 250 248 248 247 247 247 249 251 254 258 263 266 268 271 271 270 268 264 263 264 264 263 262 264 263 259 260 262 263 265 265 265 267 270 273
249 243 245 244 211 243 257 252 239 240 245 241 229 214 202 228 245 256 247 238 240 243 250 250 251 251 249 253 254 250 248 250 253 257 262 263 264 269 271 273 275 278 281 280 276 274 275 277 279 279 279 278 276 274 272 269 267 264 261 259 257 257 255 253 251 249 248 249 250 252 255 259 264 267 268 271 274 273 269 263 260 263 266 264 261 263 261 256 257 260 262 263 265 266 268 270 272
249 232 234 223 190 238 263 262 241 232 242 241 223 199 186 237 252 260 257 242 234 236 247 248 249 252 248 249 248 246 250 252 257 263 262 260 264 268 270 274 278 281 281 278 275 274 276 278 279 280 280 280 278 277 275 272 269 266 262 260 258 257 256 255 254 251 249 249 252 254 255 259 263 265 268 271 273 273 271 268 263 262 265 264 263 262 258 257 258 259 261 262 264 265 267 269 269
256 226 222 208 184 227 271 276 253 235 239 244 226 201 190 237 258 263 259 238 227 231 241 247 247 250 252 252 252 251 253 256 260 263 262 261 264 267 270 276 280 281 281 276 273 273 276 278 279 280 280 279 278 276 276 275 272 269 265 261 259 257 255 253 252 251 250 249 251 253 255 259 262 264 266 270 273 271 271 272 269 263 262 263 264 263 262 263 260 260 265 264 263 265 265 265 264
258 229 225 212 184 199 243 272 258 240 234 223 220 207 195 222 258 264 253 231 226 233 237 245 247 249 250 252 256 257 254 256 260 264 265 263 262 266 273 278 279 280 280 276 274 274 276 278 279 279 279 278 277 276 275 274 273 271 268 265 261 258 255 252 250 249 250 250 251 252 254 259 264 267 268 270 273 272 270 270 269 265 263 263 266 268 270 269 262 261 265 263 262 262 261 261 261
238 232 222 220 207 206 220 248 250 253 241 218 222 220 202 220 248 254 250 238 236 239 238 242 246 249 250 250 253 257 258 258 258 263 265 261 263 272 275 276 278 278 278 276 276 275 277 278 279 279 278 278 277 276 275 273 272 271 269 269 267 264 260 256 252 250 250 251 253 255 257 260 264 268 270 270 271 273 273 271 269 267 266 266 268 270 271 270 267 266 263 256 259 260 259 259 258
245 243 217 208 218 214 218 248 253 256 250 224 224 234 215 222 239 244 256 255 245 245 244 242 244 248 249 249 249 254 259 258 258 263 265 264 267 273 273 273 276 276 276 276 275 276 278 279 279 280 279 279 278 278 276 273 271 271 270 270 270 270 267 263 258 255 254 255 257 259 261 263 266 267 268 268 268 270 272 273 270 268 267 267 268 269 270 270 270 272 264 254 257 261 259 259 257
242 238 221 213 215 210 219 246 260 258 250 229 227 251 236 228 238 248 260 263 251 249 250 245 244 247 248 249 248 250 256 259 261 264 266 267 268 270 271 271 272 274 274 275 276 278 280 280 280 280 280 280 280 279 277 274 271 271 271 270 270 271 270 267 264 262 261 261 262 264 266 268 269 269 268 266 266 267 268 269 269 268 267 267 269 269 269 268 268 270 262 254 259 262 259 258 256
232 229 223 218 214 219 233 244 256 261 251 230 232 259 252 236 242 255 259 258 252 251 252 248 245 246 248 250 249 249 254 258 261 264 267 268 271 272 271 272 272 273 273 274 276 279 280 280 280 280 281 282 282 281 279 276 272 272 272 271 270 269 269 268 267 265 264 264 265 266 268 269 269 268 267 266 265 265 266 266 267 267 267 266 268 269 268 268 267 265 259 258 263 263 258 255 253
227 225 226 218 212 226 244 249 251 253 246 235 240 253 256 249 252 261 260 254 253 252 252 251 247 246 249 249 249 250 254 257 260 265 269 269 272 275 274 275 273 271 272 274 276 277 278 279 279 280 282 283 284 283 280 277 275 274 274 273 271 269 268 267 266 265 264 264 264 265 266 267 267 266 266 266 265 265 266 266 266 266 265 265 266 267 268 268 268 266 263 264 266 263 256 253 254
233 228 227 222 222 230 233 242 248 249 245 241 247 255 260 265 266 266 264 255 251 250 252 253 251 249 250 250 251 252 254 257 260 262 264 267 273 274 273 274 272 272 273 274 274 275 277 279 280 281 282 284 286 286 282 279 277 275 275 274 272 270 269 267 266 264 263 263 263 263 264 264 264 264 264 265 265 266 266 267 267 267 266 265 265 267 268 267 266 265 264 265 264 259 254 254 258
242 239 234 229 235 241 234 242 251 253 257 252 249 255 260 265 262 257 258 258 253 248 250 253 255 254 254 255 256 255 255 258 261 262 262 267 271 271 272 274 276 276 274 271 272 274 276 279 281 282 283 286 289 289 284 279 277 276 274 273 272 271 270 268 266 264 263 262 261 261 261 261 261 262 263 263 264 265 267 267 268 268 268 267 267 268 268 268 267 264 262 261 258 254 254 254 255
246 245 240 234 238 247 247 250 254 254 259 259 254 254 254 250 252 252 254 259 260 256 253 252 254 256 256 257 256 256 257 259 261 263 263 263 266 268 270 272 274 274 271 269 270 273 276 278 281 283 285 288 291 290 285 281 278 276 274 272 270 269 269 268 267 265 263 261 260 260 259 259 259 259 261 262 264 265 267 267 268 268 268 268 267 267 268 269 268 266 264 261 257 255 256 255 253
243 244 242 240 240 248 253 253 256 256 254 257 258 258 255 247 251 260 258 258 262 263 261 257 254 253 253 253 254 255 257 259 261 264 262 258 257 261 263 263 265 266 267 269 271 273 275 277 280 283 287 290 291 290 286 283 281 276 272 270 267 267 266 266 265 265 264 262 261 259 259 258 258 259 261 262 264 266 267 268 268 268 268 268 268 267 267 267 267 266 264 262 260 258 257 256 255
241 245 246 247 246 250 257 255 255 257 255 258 261 259 256 253 252 259 262 261 260 261 264 262 257 254 253 252 253 255 255 256 258 260 261 259 254 254 255 256 258 260 262 266 270 271 273 276 279 282 286 289 291 290 286 283 282 276 271 268 266 266 264 263 262 262 263 262 262 261 260 261 261 262 263 263 264 265 266 267 267 268 268 268 268 267 267 266 266 265 264 263 261 259 258 257 256
242 250 249 250 252 254 259 258 257 257 255 258 262 260 258 256 252 255 262 262 255 252 255 257 257 257 257 256 255 254 253 253 255 256 258 258 255 252 251 252 253 255 257 260 264 268 272 274 277 280 283 287 290 287 282 280 280 276 273 269 267 266 264 263 262 261 261 261 262 263 263 264 265 265 265 264 264 264 264 265 266 267 268 268 267 267 267 265 265 264 263 263 262 261 260 259 258
244 250 250 252 256 256 256 258 257 256 258 261 262 259 259 261 258 257 260 259 251 248 249 253 259 259 258 259 258 256 254 254 254 254 255 255 255 254 252 251 250 251 252 255 260 265 269 271 274 277 281 285 286 281 278 278 278 277 275 272 269 268 266 265 264 263 263 262 262 263 264 265 265 266 266 266 265 264 264 264 264 266 267 267 267 266 265 265 264 263 263 263 263 263 261 261 261
242 246 250 253 254 255 258 259 254 255 261 263 261 259 259 260 257 248 251 255 255 255 255 256 261 262 260 259 258 256 256 255 253 253 252 252 252 252 252 252 251 250 251 253 257 260 263 267 270 273 278 282 279 274 274 278 279 280 280 276 273 272 271 270 269 267 265 264 263 263 263 264 264 265 266 266 265 265 265 264 264 265 265 265 264 264 264 264 264 263 263 262 262 263 262 262 261
241 243 245 249 250 253 256 254 252 258 263 258 254 258 260 259 253 249 252 257 259 259 259 259 260 260 260 258 256 256 255 254 253 252 251 251 250 249 249 250 250 250 250 251 252 254 257 261 265 270 275 276 271 271 274 277 279 282 282 280 275 273 273 272 271 270 268 266 264 263 263 262 262 262 263 263 263 262 262 262 263 264 264 264 262 261 261 262 264 264 264 264 262 262 262 261 261
236 238 238 241 244 246 249 251 254 261 264 258 250 252 260 260 256 257 259 259 259 260 261 262 263 262 260 258 256 255 252 251 251 250 250 249 248 247 247 247 248 248 248 249 249 250 252 255 260 266 269 267 266 271 274 274 275 277 278 277 273 271 270 270 270 270 268 266 264 262 261 261 260 260 260 261 261 261 260 259 260 260 262 263 262 262 261 261 263 264 265 265 264 263 263 262 260
230 231 236 238 240 242 246 250 248 241 247 256 257 258 263 261 258 261 262 258 258 260 262 264 266 266 264 260 256 253 251 249 247 246 246 247 246 246 247 247 248 248 247 247 248 249 250 251 256 261 261 260 263 268 270 271 272 271 271 270 269 268 267 267 267 267 265 264 262 261 260 260 260 260 260 260 261 262 261 260 259 258 259 260 260 261 261 262 262 264 265 264 264 264 264 264 262
243 235 240 244 244 245 248 250 250 246 246 254 263 269 271 267 267 270 270 268 267 266 265 265 264 264 262 260 259 256 252 248 244 242 242 243 243 243 244 245 246 246 245 245 246 246 246 247 251 253 253 255 259 263 266 269 268 266 266 266 266 266 265 264 263 264 264 263 262 262 262 262 263 263 263 262 262 262 263 262 260 259 258 257 258 258 259 260 261 262 263 263 263 263 263 264 264
253 245 242 243 244 249 253 256 258 259 259 261 267 273 275 274 275 274 270 271 272 268 266 263 260 260 259 260 259 257 253 248 244 241 238 238 238 238 238 239 240 241 241 242 241 240 240 241 244 247 250 253 256 260 265 267 266 263 262 263 265 264 262 260 259 259 260 261 262 262 262 263 264 265 265 264 264 264 263 264 263 261 260 258 257 257 256 257 259 261 262 262 261 261 260 261 262
251 254 249 247 249 252 256 258 259 261 264 266 268 271 272 272 273 273 270 269 268 267 264 260 257 256 256 256 257 256 254 251 247 243 238 236 237 236 234 234 235 237 237 236 236 236 237 240 243 247 251 253 256 260 264 264 264 263 263 264 264 260 256 254 253 254 255 256 259 261 262 263 263 263 265 265 265 265 264 263 263 263 262 261 260 259 258 257 257 258 260 261 261 260 259 259 260
251 254 254 255 257 258 260 263 264 265 267 268 268 269 271 270 267 269 271 265 262 263 261 258 257 256 254 253 254 255 255 254 251 248 243 239 239 239 237 236 237 238 237 235 234 234 236 240 244 248 251 253 256 260 261 260 261 262 264 264 263 258 253 249 248 250 253 255 257 259 261 262 263 263 264 264 264 265 264 263 262 262 262 262 262 262 263 262 262 261 260 260 261 260 260 259 259
255 253 255 257 260 261 265 266 266 267 268 269 269 267 267 263 254 263 272 267 259 260 262 261 259 257 255 252 252 252 252 253 252 250 247 242 239 240 241 242 242 242 242 241 241 241 242 242 245 249 251 251 254 256 257 257 258 260 261 260 259 257 253 250 248 249 253 256 256 258 259 260 263 264 264 265 264 264 265 264 262 261 261 263 263 262 263 264 265 266 266 265 265 263 261 260 259
261 263 264 264 263 261 260 259 261 265 267 270 272 271 267 258 252 262 272 269 265 264 265 264 261 257 254 251 251 250 249 249 249 249 247 243 239 239 243 247 248 246 244 241 242 243 243 243 243 245 248 249 249 250 251 254 255 255 256 256 256 257 255 252 251 251 253 256 257 257 257 258 259 262 263 265 264 263 262 263 262 259 258 260 263 263 262 262 263 264 266 267 268 268 267 265 263
268 267 268 268 266 263 262 262 263 263 264 266 268 269 268 262 259 262 263 264 269 270 265 262 261 257 252 250 251 251 249 247 246 246 245 243 242 240 244 250 254 254 250 244 242 244 245 244 242 243 245 245 245 246 248 250 252 252 252 254 255 256 256 255 254 255 255 258 260 258 257 256 255 255 256 258 261 261 259 259 260 261 260 261 263 264 263 262 261 260 260 261 262 264 266 267 267